Date String (YYYY-MM-DD hh:mm:ss) UTC,Instrument flags,Ambient pressure (hPa),Sample flow (lpm),Bypass flow (lpm),Sample temperature (°C),Ambient temperature (°C),ASC tube jacket temperature (°C),LED temperature (°C),Box temperature (°C),Sample RH (%),Span deviation,Mass concentration (μg/m³),Mass concentration (μg/m³),Mass concentration (μg/m³)
DateTimeUTC,F1_M11,P_M11,Q1_M11,Q2_M11,T1_M11,T2_M11,T3_M11,T4_M11,T5_M11,U1_M11,ZSPAN_M11,X0_M11,X2_M11,X1_M11
2022-02-12 15:00:00,,0833.2,4.99,0.00,22.3,22.2,00.0,31.2,24.0,06.3,0000.0,0003.55,0001.06,0000.89
2022-02-12 15:01:00,,0833.1,5.00,0.00,22.3,22.0,00.0,31.2,23.9,06.3,0000.0,0003.61,0001.08,0000.89
2022-02-12 15:02:00,,0833.1,5.01,0.00,22.2,21.8,00.0,31.2,23.9,06.3,0000.0,0003.98,0001.07,0000.90
2022-02-12 15:03:00,,0833.2,5.00,0.00,22.2,21.7,00.0,31.2,23.8,06.3,0000.0,0004.51,0001.06,0000.90
2022-02-12 15:04:00,,0833.1,4.98,0.00,22.2,21.6,00.0,31.2,23.8,06.3,0000.0,0004.54,0001.07,0000.89
2022-02-12 15:05:00,,0833.2,5.01,0.00,22.1,21.5,00.0,31.2,23.8,06.3,0000.0,0004.57,0001.08,0000.90
2022-02-12 15:06:00,,0833.2,4.99,0.00,22.1,21.4,00.0,31.1,23.7,06.3,0000.0,0004.57,0001.08,0000.90
2022-02-12 15:07:00,,0833.2,5.00,0.00,22.1,21.3,00.0,31.1,23.7,06.3,0000.0,0005.45,0001.10,0000.91
2022-02-12 15:08:00,,0833.2,5.01,0.00,22.0,21.2,00.0,31.1,23.6,06.3,0000.0,0004.82,0001.12,0000.92
2022-02-12 15:09:00,,0833.2,5.00,0.00,22.0,21.5,00.0,31.1,23.6,06.4,0000.0,0004.34,0001.12,0000.93
2022-02-12 15:10:00,,0833.2,5.00,0.00,22.1,22.4,00.0,31.1,23.9,06.4,0000.0,0003.64,0001.10,0000.93
2022-02-12 15:11:00,,0833.2,5.00,0.00,22.3,23.3,00.0,31.2,24.2,06.4,0000.0,0003.80,0001.07,0000.93
2022-02-12 15:12:00,,0833.2,5.00,0.00,22.4,23.3,00.0,31.2,24.3,06.5,0000.0,0003.92,0001.08,0000.95
2022-02-12 15:13:00,,0833.2,4.99,0.00,22.4,23.0,00.0,31.2,24.3,06.4,0000.0,0003.53,0001.11,0000.97
2022-02-12 15:14:00,,0833.1,5.00,0.00,22.4,22.7,00.0,31.2,24.2,06.4,0000.0,0002.94,0001.11,0000.98
2022-02-12 15:15:00,,0833.1,5.00,0.00,22.4,22.4,00.0,31.2,24.1,06.5,0000.0,0002.91,0001.11,0000.99
2022-02-12 15:16:00,,0833.1,5.00,0.00,22.3,22.2,00.0,31.2,24.0,06.5,0000.0,0002.93,0001.13,0001.01
2022-02-12 15:17:00,,0833.2,5.00,0.00,22.3,22.0,00.0,31.2,23.9,06.5,0000.0,0002.92,0001.14,0001.03
2022-02-12 15:18:00,,0833.2,5.01,0.00,22.2,21.8,00.0,31.2,23.9,06.4,0000.0,0001.97,0001.14,0001.04
2022-02-12 15:19:00,,0833.2,5.00,0.00,22.2,21.7,00.0,31.2,23.9,06.4,0000.0,0001.87,0001.16,0001.05
2022-02-12 15:20:00,,0833.2,4.99,0.00,22.2,21.6,00.0,31.2,23.8,06.6,0000.0,0001.91,0001.20,0001.08
2022-02-12 15:21:00,,0833.2,5.02,0.00,22.2,21.5,00.0,31.2,23.8,06.7,0000.0,0002.01,0001.26,0001.11
2022-02-12 15:22:00,,0833.1,5.00,0.00,22.1,21.5,00.0,31.2,23.8,06.7,0000.0,0001.79,0001.29,0001.15
2022-02-12 15:23:00,,0833.1,5.00,0.00,22.1,21.4,00.0,31.2,23.7,06.7,0000.0,0001.65,0001.30,0001.18
2022-02-12 15:24:00,,0833.1,5.00,0.00,22.1,21.4,00.0,31.2,23.7,06.6,0000.0,0001.67,0001.32,0001.18
2022-02-12 15:25:00,,0833.1,5.00,0.00,22.1,22.2,00.0,31.2,23.9,06.6,0000.0,0001.78,0001.38,0001.21
2022-02-12 15:26:00,,0833.1,4.99,0.00,22.3,23.0,00.0,31.2,24.2,06.5,0000.0,0001.80,0001.40,0001.23
2022-02-12 15:27:00,,0833.1,5.01,0.00,22.4,23.1,00.0,31.3,24.3,06.5,0000.0,0001.80,0001.41,0001.24
2022-02-12 15:28:00,,0833.1,5.00,0.00,22.4,22.9,00.0,31.3,24.3,06.6,0000.0,0001.87,0001.45,0001.26
2022-02-12 15:29:00,,0833.1,4.99,0.00,22.4,22.6,00.0,31.3,24.3,06.7,0000.0,0001.90,0001.48,0001.28
2022-02-12 15:30:00,,0833.1,5.00,0.00,22.4,22.4,00.0,31.3,24.2,06.7,0000.0,0001.94,0001.52,0001.32
2022-02-12 15:31:00,,0833.1,5.01,0.00,22.4,22.3,00.0,31.3,24.2,06.6,0000.0,0001.97,0001.55,0001.34
2022-02-12 15:32:00,,0833.1,4.99,0.00,22.4,22.1,00.0,31.3,24.2,06.5,0000.0,0001.92,0001.52,0001.35
2022-02-12 15:33:00,,0833.2,4.99,0.00,22.4,22.0,00.0,31.3,24.1,06.5,0000.0,0001.95,0001.53,0001.34
2022-02-12 15:34:00,,0833.1,5.01,0.00,22.4,21.9,00.0,31.3,24.1,06.4,0000.0,0001.91,0001.50,0001.32
2022-02-12 15:35:00,,0833.1,5.00,0.00,22.4,21.8,00.0,31.3,24.1,06.5,0000.0,0001.91,0001.50,0001.33
2022-02-12 15:36:00,,0833.1,5.01,0.00,22.3,21.7,00.0,31.3,24.1,06.8,0000.0,0001.86,0001.49,0001.34
2022-02-12 15:37:00,,0833.1,5.00,0.00,22.3,21.7,00.0,31.3,24.1,06.8,0000.0,0001.91,0001.51,0001.36
2022-02-12 15:38:00,,0833.0,5.01,0.00,22.3,21.6,00.0,31.3,24.0,06.8,0000.0,0001.93,0001.52,0001.37
2022-02-12 15:39:00,,0833.1,4.99,0.00,22.3,21.6,00.0,31.3,24.0,06.7,0000.0,0001.94,0001.52,0001.37
2022-02-12 15:40:00,,0833.1,4.99,0.00,22.3,21.6,00.0,31.3,24.0,06.8,0000.0,0002.00,0001.55,0001.38
2022-02-12 15:41:00,,0833.1,5.02,0.00,22.3,21.6,00.0,31.3,24.0,06.8,0000.0,0002.06,0001.55,0001.38
2022-02-12 15:42:00,,0833.1,5.00,0.00,22.3,21.6,00.0,31.3,24.0,06.8,0000.0,0002.36,0001.52,0001.38
2022-02-12 15:43:00,,0833.1,4.99,0.00,22.3,22.3,00.0,31.3,24.1,06.6,0000.0,0002.37,0001.52,0001.38
2022-02-12 15:44:00,,0833.1,5.01,0.00,22.5,23.3,00.0,31.3,24.4,06.6,0000.0,0002.39,0001.53,0001.38
2022-02-12 15:45:00,,0833.0,4.99,0.00,22.6,23.5,00.0,31.4,24.6,06.4,0000.0,0002.46,0001.56,0001.39
2022-02-12 15:46:00,,0833.0,5.01,0.00,22.7,23.2,00.0,31.4,24.6,06.3,0000.0,0002.44,0001.55,0001.38
2022-02-12 15:47:00,,0833.0,5.00,0.00,22.7,22.9,00.0,31.4,24.6,06.2,0000.0,0002.49,0001.55,0001.37
2022-02-12 15:48:00,,0833.0,5.00,0.00,22.7,22.7,00.0,31.4,24.5,06.2,0000.0,0002.49,0001.54,0001.34
2022-02-12 15:49:00,,0833.1,5.00,0.00,22.7,22.5,00.0,31.5,24.5,06.2,0000.0,0002.52,0001.54,0001.32
2022-02-12 15:50:00,,0833.0,5.00,0.00,22.7,22.4,00.0,31.5,24.4,06.2,0000.0,0002.47,0001.52,0001.30
2022-02-12 15:51:00,,0833.0,5.00,0.00,22.6,22.3,00.0,31.5,24.4,06.2,0000.0,0002.44,0001.49,0001.28
2022-02-12 15:52:00,,0833.0,4.99,0.00,22.6,22.2,00.0,31.5,24.4,06.3,0000.0,0002.41,0001.47,0001.27
2022-02-12 15:53:00,,0833.0,5.01,0.00,22.6,22.1,00.0,31.5,24.4,06.3,0000.0,0002.04,0001.46,0001.26
2022-02-12 15:54:00,,0833.1,5.00,0.00,22.6,22.0,00.0,31.5,24.4,06.4,0000.0,0002.00,0001.45,0001.25
2022-02-12 15:55:00,,0833.0,5.01,0.00,22.6,21.9,00.0,31.5,24.4,06.8,0000.0,0001.95,0001.44,0001.26
2022-02-12 15:56:00,,0832.8,5.00,0.00,22.6,21.9,00.0,31.5,24.4,06.8,0000.0,0002.94,0001.45,0001.28
2022-02-12 15:57:00,,0832.8,5.00,0.00,22.6,21.9,00.0,31.5,24.3,06.6,0000.0,0003.13,0001.47,0001.30
2022-02-12 15:58:00,,0832.9,4.99,0.00,22.6,21.8,00.0,31.5,24.3,06.5,0000.0,0003.11,0001.46,0001.30
2022-02-12 15:59:00,,0832.8,5.01,0.00,22.6,21.8,00.0,31.5,24.3,06.5,0000.0,0003.16,0001.48,0001.32
